Location: Boos
(43.8916°N, 0.9933°W)
Time: 10:57:31
(UTC+00:00)

Daily predictions for brighter satellites

Satellite Brightness Start Highest point End
(mag) Time Altitude Azimuth Time Altitude Azimuth Time Altitude Azimuth
SPOT 5 2.8 19:22:59 10° SSE 19:27:25 58° ENE 19:31:42 10° N
NOSS 3-4 (A) 3.7 19:22:36 10° SW 19:27:49 65° NW 19:33:33 10° NNE
NOSS 3-4 (C) 3.7 19:23:07 10° SW 19:28:21 66° NW 19:34:07 10° NNE
Cosmos 1656 Rocket 4.3 19:26:54 10° N 19:32:00 38° ENE 19:37:07 10° SE
Cosmos 1025 Rocket 4.4 19:29:37 10° NNE 19:32:57 22° ENE 19:36:15 10° ESE
Helios 1A Rocket 3.1 19:31:30 10° NE 19:34:22 30° E 19:37:13 10° SSE
Cosmos 1733 Rocket 3.2 19:30:48 10° S 19:35:02 55° E 19:39:21 10° NNE
CZ-4B R/B 4.0 19:31:43 10° SSE 19:35:20 50° ENE 19:39:06 10° N
Terra 2.8 19:32:45 10° SE 19:36:46 29° ENE 19:40:48 10° N
SJ-6B 3.5 19:33:41 10° S 19:37:13 50° W 19:40:45 10° NNW
Cosmos 2242 Rocket 3.8 19:32:55 10° N 19:37:16 54° ENE 19:41:34 10° SSE
BREEZE-M DEB (TANK) 3.2 19:35:39 10° NW 19:38:01 35° NNE 19:42:22 10° E
IRAS Rocket 4.3 19:34:29 10° SSE 19:39:54 66° ENE 19:45:20 10° N
Gblst 52 Del rocket 4.4 19:34:46 10° SW 19:40:34 84° SE 19:47:11 10° ENE
Resurs 01 Rocket 3.5 19:37:19 10° SSW 19:41:12 31° W 19:45:07 10° NNW
Cosmos 1821 Rocket 4.1 19:35:27 10° S 19:41:36 60° E 19:47:51 10° NNE
Cosmos 2237 Rocket 2.6 19:36:49 10° SSW 19:42:29 70° WNW 19:48:12 10° NNE
Meteor 2-15 4.4 19:37:27 10° S 19:43:30 79° E 19:49:37 10° N
Cosmos 1980 4.3 19:38:54 10° SW 19:44:28 63° WNW 19:50:05 10° NNE
Meteor 1-21 Rocket 4.5 19:41:29 10° NNW 19:47:10 77° W 19:52:57 10° S
Cosmos 2218 Rocket 4.0 19:41:27 10° S 19:47:36 89° W 19:53:48 10° N
CSL-04 Rocket 3.7 19:42:59 10° SSE 19:48:33 86° ENE 19:54:07 10° NNW
Meteor 2-15 Rocket 4.4 19:45:01 10° S 19:50:59 65° E 19:57:02 10° NNE
BREEZE-M DEB (TANK) 3.8 19:49:33 10° WNW 19:51:38 29° N 19:54:54 10° ENE
Cosmos 1346 Rocket 3.4 19:49:32 10° N 19:52:47 31° ENE 19:55:10 15° SE
SL-4 R/B 3.2 19:53:22 10° S 19:56:05 19° SE 19:57:34 15° ESE
OAO 3 Rocket 4.4 19:52:39 10° WSW 19:56:29 26° S 19:59:27 14° SE
Cosmos 1400 Rocket 2.4 19:52:58 10° S 19:56:33 85° E 20:00:12 10° NNE
BREEZE-M DEB (TANK) 4.0 19:53:10 10° S 19:56:43 34° ESE 20:06:15 10° ENE
Cosmos 1812 0.4 19:56:45 19° S 19:57:45 63° E 19:59:24 10° NNE
SL-24 R/B 4.4 19:53:50 10° NNE 19:59:17 81° ESE 20:04:04 10° S
Meteor 1-31 Rocket 2.5 19:56:24 10° S 19:59:55 83° WSW 20:03:27 10° NNW
TIMED 4.4 19:56:31 10° NNW 20:00:47 86° ENE 20:04:49 11° SSE
Cosmos 1943 Rocket 3.9 19:57:04 10° NW 20:02:01 31° WSW 20:06:53 10° SSW
ASTEX 1 4.3 19:59:48 15° SE 20:02:59 30° ENE 20:07:14 10° NNE
Gbstr 26 Del rocket 4.3 19:58:37 10° S 20:03:01 25° SE 20:06:31 11° E
USA 59 Rocket -0.1 20:00:16 10° NW 20:03:48 76° SW 20:07:46 14° SSE
Feng Yun 1-1 Rocket 4.2 20:00:29 10° SSE 20:05:58 77° ENE 20:11:23 10° NNW
Cosmos 1869 4.4 20:06:01 19° ESE 20:06:36 20° E 20:09:14 10° NE
ADEOS 3.7 20:06:32 13° SSE 20:11:01 59° ENE 20:16:09 10° N
Cosmos 2369 Rocket 2.9 20:06:23 10° NNW 20:11:35 37° ENE 20:14:59 19° ESE
Aureole 3 4.4 20:07:12 10° N 20:12:30 80° W 20:18:41 10° S
USA 186 3.3 20:14:08 14° NE 20:14:08 14° NE 20:14:58 10° NNE
CBERS 1 LM4 rocket 4.3 20:10:01 13° SSE 20:14:15 74° ENE 20:19:03 10° N
RESURS DK-1 4.2 20:11:48 10° WSW 20:15:22 32° WNW 20:18:59 10° N
SL-08 R/B 3.6 20:10:59 10° NNE 20:15:45 50° E 20:20:29 10° S
MOS 1 4.2 20:10:31 10° SSE 20:16:09 82° ENE 20:21:50 10° NNW
Cosmos 2285 Rocket 4.1 20:12:46 10° S 20:18:55 55° ESE 20:25:05 10° NNE
Cosmos 2221 Rocket 3.9 20:16:05 10° N 20:20:20 46° ENE 20:22:40 24° SE
USA 234 3.2 20:14:53 10° NE 20:21:25 67° SE 20:27:55 10° SW
SKYMED 3 4.2 20:19:49 10° NNE 20:23:42 71° ESE 20:27:35 10° S
Cosmos 405 Rocket 4.1 20:22:59 10° NNE 20:24:26 15° ENE 20:24:26 15° ENE
Cosmos 1943 4.0 20:23:23 21° SE 20:25:51 28° ESE 20:30:37 10° NE
Molniya-1 2.8 20:24:32 10° SSW 20:27:00 74° SE 20:31:37 10° NE
CZ-4B R/B 4.3 20:27:35 17° ENE 20:27:39 17° ENE 20:29:53 10° NNE
CZ-4B R/B 3.2 20:23:42 14° SSE 20:28:36 88° ENE 20:34:18 10° NNW
Cosmos 2278 Rocket 4.3 20:24:30 10° NW 20:28:55 24° WSW 20:33:20 10° SSW
SL-8 R/B 3.9 20:26:21 10° WSW 20:31:05 72° NNW 20:35:48 10° ENE
OAO 2 Rocket 4.3 20:28:53 10° WSW 20:33:21 30° S 20:34:49 26° SSE
Cosmos 1975 Rocket 4.4 20:31:54 10° NNE 20:35:25 23° ENE 20:35:59 22° E
ERS-1 Rocket 3.3 20:33:53 12° S 20:38:24 64° WSW 20:43:24 10° NNW
Cosmos 1674 Rocket 4.0 20:37:38 10° NNW 20:41:55 59° W 20:45:17 16° S
Cosmos 2292 Rocket 3.4 20:41:28 10° NNW 20:45:33 66° W 20:47:05 30° SSW
Okean-O 2.6 20:44:32 36° SE 20:46:11 67° ENE 20:50:32 10° N
Cosmos 2298 Rocket 4.0 20:42:32 10° SSW 20:47:50 89° WNW 20:53:12 10° NNE
Cosmos 44 4.1 20:44:18 10° SW 20:49:15 57° NW 20:54:30 10° NNE
Cosmos 1908 Rocket 3.5 20:45:39 14° SSW 20:49:20 80° W 20:53:40 10° N
NOSS 2-1 (E) 4.3 20:48:08 10° NW 20:51:33 40° WSW 20:53:26 26° S
Okean O Rocket 1.5 20:53:05 39° SSE 20:54:39 86° ENE 20:59:00 10° NNW
IRS-1A Rocket 4.4 20:51:42 22° S 20:55:29 74° WSW 21:01:14 10° NNW
BREEZE-M DEB (TANK) 4.3 20:50:33 10° WNW 20:55:43 32° SW 20:56:25 29° SSW
CZ-4B R/B 4.0 20:55:25 35° E 20:56:23 39° ENE 21:00:46 10° N
CZ-4 R/B 3.7 20:55:11 10° SW 20:57:52 19° W 21:00:32 10° NW
Ariane Rocket 3.7 20:57:13 33° E 20:58:16 36° ENE 21:02:51 10° N
SL-16 R/B 2.7 20:52:58 10° SW 20:58:34 62° WNW 21:04:12 10° NNE
Cosmos 1782 Rocket 3.4 20:58:38 50° SSE 20:59:32 64° E 21:03:48 10° NNE
Cosmos 1934 Rocket 3.9 20:54:46 13° S 21:00:25 87° E 21:06:38 10° N
Geosat 4.0 20:57:13 10° NNE 21:02:15 84° WNW 21:07:14 10° SSW
Spot 2 Rocket 3.5 21:03:20 33° S 21:05:36 76° WSW 21:10:39 10° NNW
USA 245 4.0 21:05:18 47° SE 21:06:29 63° ENE 21:11:54 10° N
Cosmos 1269 Rocket 4.3 21:04:04 10° NNW 21:09:13 52° ENE 21:10:20 44° ESE
MOS 1-B 4.4 21:06:46 31° S 21:09:43 77° WSW 21:15:32 10° NNW
ATLAS 5 CENTAUR R/B 3.7 21:07:07 10° N 21:09:46 16° NE 21:11:03 15° ENE
Cosmos 1140 Rocket 3.6 21:06:43 10° NNW 21:11:48 59° ENE 21:12:46 50° ESE
Terra 3.3 21:10:46 14° SSW 21:14:12 31° W 21:18:23 10° NNW
NOSS 3-1 (C) 4.0 21:11:58 10° NW 21:19:12 90° SW 21:23:02 38° SE
Cosmos 967 Rocket 4.5 21:14:01 10° NW 21:20:30 81° WSW 21:22:39 45° SSE
Cosmos 1862 4.1 21:20:29 10° N 21:22:56 36° NNE 21:22:56 36° NNE
Cosmos 1300 Rocket 4.2 21:25:04 31° SW 21:26:48 51° WNW 21:31:00 10° N
Cosmos 2058 3.5 21:24:33 10° N 21:27:31 43° NNE 21:27:31 43° NNE
Cosmos 407 Rocket 4.1 21:23:52 10° N 21:28:41 40° ENE 21:28:58 39° ENE
SL-4 R/B 3.3 21:29:15 10° WSW 21:31:15 29° WSW 21:31:15 29° WSW
Cosmos 371 Rocket 4.2 21:28:56 10° N 21:33:16 34° ENE 21:33:16 34° ENE
COSMOS 2455 3.1 21:34:22 10° NNW 21:40:17 54° NE 21:41:17 49° E
SJ 16-02 2.9 21:37:44 10° N 21:40:32 24° NE 21:40:32 24° NE
Cosmos 1315 Rocket 3.6 21:43:33 45° WNW 21:43:33 45° WNW 21:46:58 10° N
Gbstr 26 Del rocket 3.3 21:44:06 10° WSW 21:48:40 67° W 21:48:40 67° W
SPOT 3 Rocket 3.8 21:48:49 56° SW 21:49:33 62° WSW 21:54:42 10° NNW
Cosmos 1605 Rocket 4.1 21:47:32 37° SSW 21:50:00 69° W 21:56:08 10° N
Lacrosse 5 rocket 3.4 21:51:25 10° NNW 21:52:47 17° N 21:52:47 17° N
Cosmos 2369 Rocket 3.3 21:50:30 10° NW 21:55:29 34° WSW 21:56:46 30° SW
SeaSat 1 4.2 21:56:42 20° NE 21:57:12 20° NE 22:00:44 10° N
Cosmos 2173 Rocket 4.2 22:03:21 52° ENE 22:03:21 52° ENE 22:08:51 10° NNE
USA 234 4.2 21:58:03 10° NE 22:04:15 47° NNW 22:10:27 10° W
Cosmos 921 Rocket 3.9 22:03:15 10° NNW 22:06:41 47° WNW 22:06:41 47° WNW
Cosmos 1603 3.6 22:07:59 78° NE 22:07:59 78° NE 22:13:21 10° NNE
Cosmos 1943 4.1 22:04:58 14° SW 22:09:37 45° WNW 22:15:04 10° NNE
Cosmos 1975 Rocket 4.4 22:09:13 10° NNW 22:12:59 33° W 22:12:59 33° W
SL-8 R/B 4.5 22:09:13 10° WNW 22:13:47 48° N 22:13:50 48° N
Meteor 2-3 Rocket 4.1 22:09:09 10° N 22:14:03 51° NE 22:14:03 51° NE
NOSS 3-1 (A) 4.0 22:11:41 10° NW 22:19:02 84° SW 22:20:42 62° SSE
Cosmos 2100 Rocket 3.8 22:26:44 82° NE 22:26:44 82° NE 22:32:45 10° N
Ariane Rocket 4.4 22:37:17 28° W 22:37:17 28° W 22:41:30 10° NW
Cosmos 1656 4.0 22:39:53 10° NNW 22:44:20 59° N 22:44:20 59° N
ATLAS 3B R/B 4.3 22:44:56 10° NNW 22:51:49 32° NNE 22:55:41 21° E
ATLAS 5 CENTAUR R/B 3.2 22:47:54 10° NW 22:50:11 33° NW 22:50:11 33° NW
Cosmos 1833 Rocket 4.0 23:01:17 30° NE 23:01:17 30° NE 23:04:12 10° NE
Cosmos 1818 4.3 22:59:56 10° NW 23:03:52 49° NW 23:03:52 49° NW
ARIANE 5 R/B 4.5 23:10:04 28° N 23:10:04 28° N 23:12:12 10° N
Cosmos 1725 Rocket 4.1 23:08:52 71° NW 23:08:52 71° NW 23:14:37 10° N
DEBRIS 4.3 23:14:40 57° NW 23:15:23 63° N 23:28:48 10° ENE
Cosmos 2233 Rocket 4.2 23:18:32 66° NNE 23:18:32 66° NNE 23:23:51 10° N
Cosmos 2056 Rocket 4.5 23:20:45 46° N 23:20:45 46° N 23:24:44 10° NNE
SJ 16-02 3.7 23:15:41 10° NW 23:17:02 18° NW 23:17:02 18° NW
ATLAS 2AS CENTAUR R/B 2.9 23:25:29 64° NE 23:25:29 64° NE 23:31:12 10° NE
COSMOS 2455 4.4 23:20:54 10° NW 23:24:25 25° W 23:24:25 25° W
CZ-2C R/B 4.1 23:29:07 31° NE 23:29:07 31° NE 23:33:07 10° N
SeaSat 1 3.9 23:36:18 33° NW 23:36:18 33° NW 23:39:00 10° NNW
ACS3 Solar Sail 3.8 23:42:03 10° NE 23:44:46 15° ENE 23:44:46 15° ENE
Cosmos 1697 Rocket 3.5 23:43:12 10° NNW 23:47:06 46° NNW 23:47:06 46° NNW
